| time (UTC) | temp C | wind direction | speed KPH | gust KPH | rain 1hr cm | rain 24hr cm | rain mn cm | humidity % | barometer mb |
| 20260504201527 | 22 | 116 | 4.8 | 16.1 | 0.00 | 0.00 | 0.00 | 48 | 1009.8 |
| 20260504200030 | 22 | 140 | 4.8 | 16.1 | 0.00 | 0.00 | 0.00 | 49 | 1009.8 |
| 20260504194523 | 21 | 103 | 6.4 | 12.9 | 0.00 | 0.00 | 0.00 | 48 | 1009.8 |
| 20260504193025 | 21 | 164 | 11.3 | 14.5 | 0.00 | 0.00 | 0.00 | 47 | 1009.8 |
| 20260504191521 | 21 | 147 | 6.4 | 12.9 | 0.00 | 0.00 | 0.00 | 49 | 1009.9 |
| 20260504190021 | 21 | 152 | 8.0 | 12.9 | 0.00 | 0.00 | 0.00 | 49 | 1010.0 |
| 20260504184520 | 20 | 150 | 9.7 | 16.1 | 0.00 | 0.00 | 0.00 | 50 | 1010.0 |
| 20260504183020 | 21 | 153 | 9.7 | 14.5 | 0.00 | 0.00 | 0.00 | 48 | 1009.9 |
| 20260504181519 | 21 | 150 | 8.0 | 14.5 | 0.00 | 0.00 | 0.00 | 47 | 1010.0 |
| 20260504180018 | 21 | 225 | 4.8 | 14.5 | 0.00 | 0.00 | 0.00 | 49 | 1010.2 |
| 20260504174517 | 20 | 171 | 6.4 | 11.3 | 0.00 | 0.00 | 0.00 | 51 | 1010.2 |
| 20260504173016 | 20 | 153 | 6.4 | 12.9 | 0.00 | 0.00 | 0.00 | 53 | 1010.3 |
| 20260504171533 | 20 | 164 | 4.8 | 8.0 | 0.00 | 0.00 | 0.00 | 55 | 1010.3 |
| 20260504081527 | 16 | 267 | 0.0 | 4.8 | 0.00 | 0.00 | 0.00 | 65 | 1008.3 |
| 20260504050007 | 19 | 261 | 4.8 | 8.0 | 0.00 | 0.00 | 0.00 | 58 | 1009.0 |
| 20260504044508 | 19 | 261 | 6.4 | 9.7 | 0.00 | 0.00 | 0.00 | 60 | 1008.9 |
| 20260504043006 | 18 | 286 | 3.2 | 6.4 | 0.00 | 0.00 | 0.00 | 62 | 1008.9 |
| 20260504041506 | 18 | 286 | 4.8 | 6.4 | 0.00 | 0.00 | 0.00 | 61 | 1008.8 |
| 20260504040007 | 18 | 295 | 1.6 | 6.4 | 0.00 | 0.00 | 0.00 | 58 | 1008.8 |
| 20260504034505 | 18 | 14 | 0.0 | 3.2 | 0.00 | 0.00 | 0.00 | 58 | 1008.8 |
| 20260504033004 | 18 | 14 | 1.6 | 4.8 | 0.00 | 0.00 | 0.00 | 63 | 1008.8 |
| 20260504031504 | 20 | 14 | 0.0 | 1.6 | 0.00 | 0.00 | 0.00 | 60 | 1008.7 |
| 20260504030003 | 21 | 14 | 0.0 | 3.2 | 0.00 | 0.00 | 0.00 | 56 | 1008.8 |
| 20260504024505 | 23 | 14 | 0.0 | 0.0 | 0.00 | 0.00 | 0.00 | 51 | 1008.8 |
| 20260504023002 | 24 | 14 | 0.0 | 1.6 | 0.00 | 0.00 | 0.00 | 48 | 1009.0 |
| 20260504021601 | 24 | 14 | 1.6 | 3.2 | 0.00 | 0.00 | 0.00 | 48 | 1009.2 |
| 20260504014618 | 25 | 14 | 0.0 | 4.8 | 0.00 | 0.00 | 0.00 | 45 | 1009.3 |
| 20260504013103 | 25 | 14 | 1.6 | 3.2 | 0.00 | 0.00 | 0.00 | 44 | 1009.5 |
| 20260504011559 | 25 | 14 | 1.6 | 4.8 | 0.00 | 0.00 | 0.00 | 45 | 1009.7 |
| 20260504010059 | 25 | 13 | 0.0 | 4.8 | 0.00 | 0.00 | 0.00 | 45 | 1009.8 |
| 20260504004553 | 25 | 11 | 1.6 | 4.8 | 0.00 | 0.00 | 0.00 | 45 | 1009.9 |
| 20260504003058 | 24 | 15 | 4.8 | 8.0 | 0.00 | 0.00 | 0.00 | 47 | 1010.1 |
| 20260504001549 | 23 | 162 | 3.2 | 6.4 | 0.00 | 0.00 | 0.00 | 47 | 1010.3 |
| 20260504000049 | 22 | 170 | 4.8 | 11.3 | 0.00 | 0.00 | 0.00 | 48 | 1010.4 |
| 20260503234550 | 21 | 161 | 6.4 | 11.3 | 0.00 | 0.00 | 0.00 | 50 | 1010.6 |
| 20260503233047 | 22 | 193 | 8.0 | 12.9 | 0.00 | 0.00 | 0.00 | 48 | 1010.7 |
| 20260503231545 | 23 | 219 | 1.6 | 8.0 | 0.00 | 0.00 | 0.00 | 49 | 1010.8 |
| 20260503230045 | 21 | 184 | 6.4 | 16.1 | 0.00 | 0.00 | 0.00 | 51 | 1010.9 |
| 20260503224544 | 23 | 165 | 8.0 | 14.5 | 0.00 | 0.00 | 0.00 | 48 | 1011.1 |
| 20260503223043 | 23 | 160 | 6.4 | 9.7 | 0.00 | 0.00 | 0.00 | 47 | 1011.3 |
| 20260503221541 | 24 | 167 | 4.8 | 8.0 | 0.00 | 0.00 | 0.00 | 45 | 1011.4 |
| 20260503220046 | 23 | 160 | 3.2 | 6.4 | 0.00 | 0.00 | 0.00 | 49 | 1011.5 |
| 20260503214537 | 23 | 144 | 3.2 | 8.0 | 0.00 | 0.00 | 0.00 | 49 | 1011.7 |
| 20260503213036 | 22 | 167 | 1.6 | 6.4 | 0.00 | 0.00 | 0.00 | 51 | 1011.8 |
| 20260503211534 | 23 | 110 | 1.6 | 9.7 | 0.00 | 0.00 | 0.00 | 49 | 1011.9 |
| 20260503210031 | 22 | 98 | 3.2 | 6.4 | 0.00 | 0.00 | 0.00 | 51 | 1012.2 |
| 20260503204527 | 21 | 79 | 3.2 | 8.0 | 0.00 | 0.00 | 0.00 | 54 | 1012.4 |
| 20260503203029 | 20 | 131 | 1.6 | 6.4 | 0.00 | 0.00 | 0.00 | 57 | 1012.6 |